DW9433 Weather Reports


Display with metric or nautical units.
time (UTC)temp
F
wind
direction
speed
MPH
gust
MPH
rain 1hr
in
rain 24hr
in
rain mn
in
humidity
%
barometer
mb
20260831091544 73 134 0.0 0.0 0.00 0.00 0.00 89 1016.3
20260831090042 73 134 0.0 0.0 0.00 0.00 0.00 89 1016.2
20260831084546 74 134 0.0 0.0 0.00 0.00 0.00 88 1016.2
20260831083050 74 134 0.0 0.0 0.00 0.00 0.00 88 1016.1
20260831081544 74 134 0.0 0.0 0.00 0.00 0.00 88 1015.9
20260831080036 75 134 0.0 0.0 0.00 0.00 0.00 87 1015.9
20260831074535 75 134 0.0 0.0 0.00 0.00 0.00 87 1015.9
20260831073034 76 134 0.0 0.0 0.00 0.00 0.00 86 1015.8
20260831071533 76 134 0.0 0.0 0.00 0.00 0.00 85 1016.0
20260831070038 76 134 0.0 0.0 0.00 0.00 0.00 85 1016.1
20260831064529 76 134 0.0 0.0 0.00 0.00 0.00 84 1016.1
20260831063027 77 134 0.0 0.0 0.00 0.00 0.00 83 1016.3
20260831061524 77 134 0.0 0.0 0.00 0.00 0.00 82 1016.3
20260831060021 78 134 0.0 0.0 0.00 0.00 0.00 81 1016.3
20260831054518 79 134 0.0 0.0 0.00 0.00 0.00 80 1016.4
20260831053015 80 134 0.0 0.0 0.00 0.00 0.00 78 1016.3
20260831051521 81 134 0.0 0.0 0.00 0.00 0.00 76 1016.2
20260831050008 82 134 0.0 0.0 0.00 0.00 0.00 74 1016.1
20260831044507 82 134 0.0 0.0 0.00 0.00 0.00 72 1016.2
20260831043007 83 134 0.0 0.0 0.00 0.00 0.00 72 1016.3
20260831041507 83 132 0.0 0.0 0.00 0.00 0.00 72 1016.2
20260831040019 83 132 0.0 0.0 0.00 0.00 0.00 71 1016.3
20260831034505 84 133 0.0 0.0 0.00 0.00 0.00 70 1016.2
20260831033007 84 152 0.0 0.0 0.00 0.00 0.00 70 1016.1
20260831031507 84 159 0.0 0.0 0.00 0.00 0.00 69 1015.9
20260831030004 84 166 0.0 0.0 0.00 0.00 0.00 70 1015.8
20260831024504 84 155 0.0 0.0 0.00 0.00 0.00 70 1015.8
20260831023005 84 181 0.0 0.0 0.00 0.00 0.00 71 1015.8
20260831021512 83 181 0.0 0.0 0.00 0.00 0.00 73 1015.6
20260831020003 83 181 0.0 0.0 0.00 0.00 0.00 73 1015.4
20260831014502 83 181 0.0 0.0 0.00 0.00 0.00 73 1015.3
20260831013002 84 181 0.0 0.0 0.00 0.00 0.00 72 1015.2
20260831011504 85 181 0.0 0.0 0.00 0.00 0.00 70 1015.0
20260831010001 87 181 0.0 0.0 0.00 0.00 0.00 67 1014.9
20260831004600 88 181 0.0 0.0 0.00 0.00 0.00 64 1014.8
20260831003100 90 181 0.0 0.0 0.00 0.00 0.00 61 1014.8
20260831001608 91 181 0.0 0.0 0.00 0.00 0.00 59 1014.7
20260831000059 91 170 0.0 0.0 0.00 0.00 0.00 58 1014.7
20260830234558 92 149 0.0 0.0 0.00 0.00 0.00 57 1014.7
20260830233058 93 159 0.0 5.0 0.00 0.00 0.00 55 1014.6
20260830231558 93 200 0.0 2.0 0.00 0.00 0.00 56 1014.5
20260830230057 93 17 0.0 2.0 0.00 0.00 0.00 55 1014.5
20260830224605 94 30 0.0 4.0 0.00 0.00 0.00 54 1014.6
20260830223058 94 355 0.0 2.0 0.00 0.00 0.00 53 1014.6
20260830221555 94 126 0.0 2.0 0.00 0.00 0.00 53 1014.5
20260830220113 95 149 0.0 6.0 0.00 0.00 0.00 51 1014.6
20260830214601 95 158 1.0 5.0 0.00 0.00 0.00 51 1014.7
20260830213053 95 140 0.0 1.0 0.00 0.00 0.00 50 1014.6
20260830211552 95 52 0.0 0.0 0.00 0.00 0.00 52 1014.9
20260830210050 96 200 0.0 3.0 0.00 0.00 0.00 51 1015.0
20260830204548 96 22 0.0 3.0 0.00 0.00 0.00 50 1015.1
20260830203056 97 65 0.0 3.0 0.00 0.00 0.00 50 1015.4
20260830201544 95 20 0.0 1.0 0.00 0.00 0.00 52 1015.5
20260830200043 95 157 0.0 3.0 0.00 0.00 0.00 51 1015.7
20260830194542 96 332 0.0 1.0 0.00 0.00 0.00 49 1015.9
20260830193040 97 163 0.0 4.0 0.00 0.00 0.00 48 1016.1
20260830191538 97 200 1.0 6.0 0.00 0.00 0.00 49 1016.2
20260830190039 97 179 0.0 3.0 0.00 0.00 0.00 49 1016.4
20260830184536 96 181 0.0 4.0 0.00 0.00 0.00 49 1016.7
20260830183037 97 250 0.0 5.0 0.00 0.00 0.00 49 1016.7
20260830181540 96 180 0.0 7.0 0.00 0.00 0.00 50 1016.7
20260830180048 95 169 0.0 4.0 0.00 0.00 0.00 51 1016.8
20260830174531 95 171 0.0 3.0 0.00 0.00 0.00 50 1016.9
20260830173051 94 189 0.0 5.0 0.00 0.00 0.00 52 1017.1
20260830171530 94 202 0.0 1.0 0.00 0.00 0.00 51 1017.3
20260830170025 95 156 0.0 3.0 0.00 0.00 0.00 51 1017.4
20260830164525 94 178 0.0 4.0 0.00 0.00 0.00 52 1017.6
20260830163023 94 178 0.0 1.0 0.00 0.00 0.00 53 1017.7
20260830161522 93 115 0.0 2.0 0.00 0.00 0.00 52 1017.8
20260830160018 93 181 0.0 2.0 0.00 0.00 0.00 51 1017.7
20260830154516 92 165 0.0 6.0 0.00 0.00 0.00 51 1017.9
20260830153012 91 142 0.0 1.0 0.00 0.00 0.00 56 1017.8
20260830151509 89 205 0.0 1.0 0.00 0.00 0.00 57 1017.8
20260830150005 88 157 0.0 0.0 0.00 0.00 0.00 61 1017.8
20260830144502 86 168 0.0 0.0 0.00 0.00 0.00 65 1017.9
20260830143104 85 190 0.0 1.0 0.00 0.00 0.00 68 1018.0
20260830141553 83 155 0.0 1.0 0.00 0.00 0.00 72 1018.2
20260830140057 80 167 0.0 1.0 0.00 0.00 0.00 74 1018.2
20260830134550 78 175 0.0 0.0 0.00 0.00 0.00 80 1018.2
20260830133040 75 184 0.0 0.0 0.00 0.00 0.00 85 1018.3
20260830131543 72 184 0.0 0.0 0.00 0.00 0.00 89 1018.3
20260830130032 70 184 0.0 0.0 0.00 0.00 0.00 92 1018.2
20260830124530 69 184 0.0 0.0 0.00 0.00 0.00 93 1018.0
20260830123030 68 184 0.0 0.0 0.00 0.00 0.00 94 1018.0
20260830121529 67 184 0.0 0.0 0.00 0.00 0.00 94 1017.8
20260830120027 67 184 0.0 0.0 0.00 0.00 0.00 94 1017.6
20260830114525 67 184 0.0 0.0 0.00 0.00 0.00 94 1017.3
20260830113026 67 184 0.0 0.0 0.00 0.00 0.00 93 1017.4
20260830111524 67 184 0.0 0.0 0.00 0.00 0.00 93 1017.1
20260830110023 67 184 0.0 0.0 0.00 0.00 0.00 94 1016.9
20260830104522 66 184 0.0 0.0 0.00 0.00 0.00 93 1016.7
20260830103021 67 184 0.0 0.0 0.00 0.00 0.00 93 1016.5
20260830101520 67 184 0.0 0.0 0.00 0.00 0.00 93 1016.5
20260830100020 67 184 0.0 0.0 0.00 0.00 0.00 93 1016.5
20260830094519 67 184 0.0 0.0 0.00 0.00 0.00 93 1016.5
20260830093019 67 184 0.0 0.0 0.00 0.00 0.00 93 1016.6